FW2439 Weather Reports


time (UTC)temp
C
wind
direction
speed
KPH
gust
KPH
rain 1hr
cm
rain 24hr
cm
rain mn
cm
humidity
%
barometer
mb
20260505081559 13 219 0.0 3.2 0.00 0.00 0.00 85 1009.2
20260505080057 13 219 0.0 0.0 0.00 0.00 0.00 85 1009.2
20260505074556 13 219 0.0 1.6 0.00 0.00 0.00 87 1009.4
20260505073056 12 219 0.0 1.6 0.00 0.00 0.00 88 1009.8
20260505071553 12 219 0.0 0.0 0.00 0.00 0.00 88 1010.3
20260505070052 12 219 0.0 1.6 0.00 0.00 0.00 88 1010.2
20260505064557 12 219 0.0 1.6 0.00 0.00 0.00 87 1011.0
20260505063051 12 219 0.0 0.0 0.00 0.00 0.00 86 1011.2
20260505061544 13 219 0.0 0.0 0.00 0.00 0.00 85 1011.1
20260505060041 13 219 0.0 0.0 0.00 0.00 0.00 84 1011.2
20260505054539 13 219 0.0 1.6 0.00 0.00 0.00 83 1011.1
20260505053036 13 219 0.0 0.0 0.00 0.00 0.00 83 1011.2
20260505051535 14 219 0.0 0.0 0.00 0.00 0.00 81 1011.2
20260505041534 15 219 0.0 1.6 0.00 0.00 0.00 75 1011.4
20260505040031 16 219 0.0 1.6 0.00 0.00 0.00 74 1011.1
20260505034534 16 219 0.0 1.6 0.00 0.00 0.00 72 1011.2
20260505033032 16 219 0.0 1.6 0.00 0.00 0.00 72 1011.1
20260505031528 16 219 0.0 1.6 0.00 0.00 0.00 71 1010.9
20260505030028 17 219 0.0 0.0 0.00 0.00 0.00 68 1010.7
20260505024539 17 219 0.0 1.6 0.00 0.00 0.00 66 1010.9
20260505023026 18 219 0.0 1.6 0.00 0.00 0.00 65 1010.7
20260505021525 18 219 0.0 1.6 0.00 0.00 0.00 63 1010.7
20260505020025 19 219 0.0 3.2 0.00 0.00 0.00 62 1010.4
20260505014530 20 219 0.0 4.8 0.00 0.00 0.00 60 1010.6
20260505013029 20 219 0.0 1.6 0.00 0.00 0.00 59 1010.5
20260505011524 21 219 0.0 3.2 0.00 0.00 0.00 57 1010.3
20260505010024 21 219 0.0 4.8 0.00 0.00 0.00 56 1010.4
20260505004524 22 203 1.6 6.4 0.00 0.00 0.00 53 1010.4
20260505003022 22 212 1.6 8.0 0.00 0.00 0.00 51 1010.5
20260505001522 23 222 3.2 12.9 0.00 0.00 0.00 50 1010.4
20260505000030 23 219 1.6 12.9 0.00 0.00 0.00 49 1010.3
20260504234522 23 179 3.2 12.9 0.00 0.00 0.00 48 1010.4
20260504233023 24 160 4.8 25.7 0.00 0.00 0.00 48 1010.3
20260504231527 25 158 3.2 16.1 0.00 0.00 0.00 48 1010.3
20260504230019 25 207 8.0 14.5 0.00 0.00 0.00 45 1010.4
20260504224522 26 192 1.6 16.1 0.00 0.00 0.00 45 1010.4
20260504223016 26 159 8.0 25.7 0.00 0.00 0.00 45 1010.4
20260504221515 26 170 9.7 22.5 0.00 0.00 0.00 44 1010.3
20260504220019 26 219 8.0 22.5 0.00 0.00 0.00 45 1010.4
20260504214514 26 259 9.7 27.4 0.00 0.00 0.00 44 1010.4
20260504213013 26 167 6.4 22.5 0.00 0.00 0.00 43 1010.3
20260504211513 26 184 8.0 20.9 0.00 0.00 0.00 46 1010.4
20260504210010 26 217 4.8 14.5 0.00 0.00 0.00 46 1010.5
20260504204509 26 227 11.3 24.1 0.00 0.00 0.00 45 1010.6
20260504203018 26 221 12.9 20.9 0.00 0.00 0.00 44 1011.0
20260504201506 26 212 3.2 19.3 0.00 0.00 0.00 47 1011.0
20260504200005 26 174 4.8 20.9 0.00 0.00 0.00 48 1011.3
20260504194503 26 228 12.9 30.6 0.00 0.00 0.00 46 1011.9
20260504193000 26 193 4.8 14.5 0.00 0.00 0.00 48 1012.0
20260504191559 26 212 8.0 22.5 0.00 0.00 0.00 47 1012.3
20260504190125 26 223 8.0 17.7 0.00 0.00 0.00 46 1012.4
20260504184558 26 176 8.0 12.9 0.00 0.00 0.00 48 1012.4
20260504183051 25 212 8.0 22.5 0.00 0.00 0.00 50 1012.4
20260504181556 25 203 11.3 25.7 0.00 0.00 0.00 48 1012.5
20260504180128 25 181 6.4 20.9 0.00 0.00 0.00 50 1012.6
20260504174549 25 173 6.4 19.3 0.00 0.00 0.00 49 1012.9
20260504173056 25 225 6.4 16.1 0.00 0.00 0.00 50 1013.2
20260504171540 25 176 6.4 16.1 0.00 0.00 0.00 51 1013.3